Russellville, AR

1:14 AM CDT on August 20, 2017 (GMT -0500)
Russellville Regional

Weather History for KRUE - March, 2014

Change the Weather History Date:

Saturday, March 29, 2014

  Actual Average (KHOT) Record (KHOT)
Temperature  
Mean Temperature 54 °F -  
Max Temperature 66 °F 71 °F 88 °F (1967)
Min Temperature 41 °F 46 °F 30 °F (1955)
Degree Days  
Heating Degree Days 10    
Growing Degree Days 4 (Base 50)    
Moisture  
Dew Point 41 °F    
Average Humidity 68    
Maximum Humidity 94    
Minimum Humidity 34    
Precipitation  
Precipitation 0.00 in - - ()
Sea Level Pressure  
Sea Level Pressure 30.15 in    
Wind  
Wind Speed 4 mph (NNW)    
Max Wind Speed 13 mph    
Max Gust Speed 17 mph    
Visibility 10 miles    
Events      
Averages and records for this station are not official NWS values.
T = Trace of Precipitation, MM = Missing Value Source: NWS Daily Summary

Daily Weather History Graph

Daily Weather History Graph

Search for Another Location

Airport or City:

Trip Planner

Search our weather history database for the weather conditions in past years. The results will help you decide how hot, cold, wet, or windy it might be!

Date:

Astronomy

Mar. 29, 2014 Rise Set
Actual Time 7:03 AM CDT 7:31 PM CDT
Civil Twilight 6:37 AM CDT 7:56 PM CDT
Nautical Twilight 6:07 AM CDT 8:26 PM CDT
Astronomical Twilight 5:37 AM CDT 8:57 PM CDT
Moon 6:09 AM CDT (3/29) 6:38 PM CDT (3/29)
Length of Visible Light 13h 19m
Length of Day
12h 28m
Waning Crescent, 2% of the Moon is Illuminated
Mar 29
Waning Crescent
Mar 30
New
Apr 7
First Quarter
Apr 15
Full
Apr 22
Last Quarter

Hourly Weather History & Observations

Time (CDT) Temp. Dew Point Humidity Pressure Visibility Wind Dir Wind Speed Gust Speed Precip Events Conditions
12:53 AM 53.1 °F 48.0 °F 83% 30.01 in 10.0 mi North 4.6 mph - N/A   Clear
1:53 AM 52.0 °F 46.9 °F 83% 30.02 in 10.0 mi NW 3.5 mph - N/A   Clear
2:53 AM 50.0 °F 46.9 °F 89% 30.03 in 10.0 mi NW 3.5 mph - N/A   Clear
3:09 AM 50.0 °F 48.2 °F 94% 30.05 in 10.0 mi NNW 4.6 mph - N/A   Mostly Cloudy
3:43 AM 51.8 °F 46.4 °F 82% 30.04 in 10.0 mi North 6.9 mph - N/A   Scattered Clouds
3:53 AM 50.0 °F 45.0 °F 83% 30.04 in 10.0 mi NNW 3.5 mph - N/A   Clear
4:53 AM 45.0 °F 42.1 °F 90% 30.06 in 10.0 mi Calm Calm - N/A   Clear
5:53 AM 44.1 °F 42.1 °F 93% 30.08 in 10.0 mi Calm Calm - N/A   Clear
6:53 AM 43.0 °F 41.0 °F 93% 30.12 in 10.0 mi Calm Calm - N/A   Clear
7:53 AM 44.1 °F 42.1 °F 93% 30.16 in 6.0 mi Calm Calm - N/A   Clear
8:53 AM 50.0 °F 43.0 °F 77% 30.19 in 10.0 mi North 6.9 mph - N/A   Clear
9:53 AM 53.1 °F 39.0 °F 59% 30.22 in 10.0 mi North 9.2 mph - N/A   Partly Cloudy
10:53 AM 55.0 °F 37.9 °F 53% 30.23 in 10.0 mi NNW 9.2 mph - N/A   Clear
11:53 AM 57.9 °F 39.0 °F 49% 30.22 in 10.0 mi North 9.2 mph - N/A   Clear
12:53 PM 59.0 °F 37.9 °F 46% 30.21 in 10.0 mi NW 4.6 mph 17.3 mph N/A   Clear
1:53 PM 63.0 °F 37.0 °F 38% 30.19 in 10.0 mi North 12.7 mph 16.1 mph N/A   Clear
2:53 PM 64.0 °F 39.0 °F 40% 30.18 in 10.0 mi WSW 10.4 mph 16.1 mph N/A   Scattered Clouds
3:53 PM 66.0 °F 37.9 °F 36% 30.17 in 10.0 mi NW 5.8 mph - N/A   Clear
4:53 PM 66.0 °F 37.0 °F 34% 30.17 in 10.0 mi NNW 10.4 mph - N/A   Clear
5:53 PM 66.0 °F 37.0 °F 34% 30.17 in 10.0 mi NNW 9.2 mph - N/A   Clear
6:53 PM 64.0 °F 36.0 °F 35% 30.17 in 10.0 mi WNW 4.6 mph - N/A   Clear
7:53 PM 54.0 °F 37.9 °F 55% 30.18 in 10.0 mi Calm Calm - N/A   Clear
8:53 PM 48.0 °F 39.9 °F 74% 30.20 in 10.0 mi Calm Calm - N/A   Clear
9:53 PM 45.0 °F 39.0 °F 80% 30.21 in 10.0 mi Calm Calm - N/A   Clear
10:53 PM 44.1 °F 39.0 °F 82% 30.23 in 10.0 mi Calm Calm - N/A   Clear
11:53 PM 41.0 °F 37.0 °F 86% 30.25 in 10.0 mi Calm Calm - N/A   Clear